This is the latest recevied weather packets stored in our database for station/object N5JXS. If no packets are shown the sender has not sent any weather packets the latest 10 day(s).
| Time | Temp. | Humidity | Pressure | Rain* | Wind** | Luminosity | Snow |
|---|---|---|---|---|---|---|---|
| 1777167487 | 8.89° C | 45% | 1013.8 hPa | 0 mm | - | 2 W/m² | - |
| 1777167182 | 8.89° C | 45% | 1013.8 hPa | 0 mm | - | 3 W/m² | - |
| 1777166879 | 9.44° C | 45% | 1013.6 hPa | 0 mm | - | 4 W/m² | - |
| 1777166574 | 9.44° C | 44% | 1013.5 hPa | 0 mm | - | 6 W/m² | - |
| 1777166269 | 9.44° C | 44% | 1013.1 hPa | 0 mm | - | 7 W/m² | - |
| 1777165966 | 9.44° C | 44% | 1013.1 hPa | 0 mm | - | 13 W/m² | - |
| 1777165664 | 9.44° C | 43% | 1013.1 hPa | 0 mm | - | 16 W/m² | - |
| 1777165360 | 10° C | 43% | 1013.3 hPa | 0 mm | - | 21 W/m² | - |
| 1777165056 | 10° C | 43% | 1012.8 hPa | 0 mm | - | 22 W/m² | - |
| 1777164756 | 10° C | 43% | 1012.9 hPa | 0 mm | - | 25 W/m² | - |
| 1777164454 | 10° C | 43% | 1012.9 hPa | 0 mm | - | 26 W/m² | - |
| 1777164149 | 10° C | 43% | 1012.8 hPa | 0 mm | - | 26 W/m² | - |
| 1777163849 | 10° C | 42% | 1012.8 hPa | 0 mm | - | 28 W/m² | - |
| 1777163544 | 10.56° C | 41% | 1012.8 hPa | 0 mm | - | 25 W/m² | - |
| 1777163240 | 10.56° C | 40% | 1012.8 hPa | 0 mm | - | 24 W/m² | - |
| 1777162937 | 10.56° C | 40% | 1012.5 hPa | 0 mm | - | 31 W/m² | - |
| 1777162636 | 10.56° C | 39% | 1012.8 hPa | 0 mm | - | 35 W/m² | - |
| 1777162331 | 10.56° C | 39% | 1012.8 hPa | 0 mm | - | 35 W/m² | - |
| 1777162026 | 10.56° C | 39% | 1012.8 hPa | 0 mm | - | 35 W/m² | - |
| 1777161721 | 11.11° C | 38% | 1012.6 hPa | 0 mm | - | 31 W/m² | - |
| 1777161419 | 11.67° C | 36% | 1012.5 hPa | 0 mm | - | 28 W/m² | - |
| 1777161115 | 11.67° C | 36% | 1012.4 hPa | 0 mm | - | 26 W/m² | - |
| 1777160811 | 11.67° C | 35% | 1012.4 hPa | 0 mm | - | 39 W/m² | - |
| 1777160511 | 11.67° C | 35% | 1012.4 hPa | 0 mm | - | 65 W/m² | - |
| 1777160207 | 11.67° C | 35% | 1012.5 hPa | 0 mm | - | 61 W/m² | - |
* Rain latest hour (hover to see other rain measurements)
** Current wind speed in m/s (hover to see current wind gust speed)